Time,TemperatureF,DewpointF,PressureIn,WindDirection,WindDirectionDegrees,WindSpeedMPH,WindSpeedGustMPH,Humidity,HourlyPrecipIn,Conditions,Clouds,dailyrainin,SolarRadiationWatts/m^2,SoftwareType,DateUTC
2013-04-28 00:01:00,61.2,44.4,29.78,SE,137,2.0,2.0,54,0.00,,---,0.00,0.00,VWS V14.00,2013-04-28 05:01:00,
2013-04-28 00:06:00,61.0,45.7,29.78,SSW,196,2.0,2.0,57,0.00,,---,0.00,0.00,VWS V14.00,2013-04-28 05:06:00,
2013-04-28 00:11:00,60.9,45.6,29.78,SE,144,8.0,8.0,57,0.00,,---,0.00,0.00,VWS V14.00,2013-04-28 05:11:00,
2013-04-28 00:16:00,60.5,45.2,29.78,SSE,160,5.0,6.0,57,0.00,,---,0.00,0.00,VWS V14.00,2013-04-28 05:16:00,
2013-04-28 00:21:00,60.5,45.2,29.78,SSW,200,4.0,5.0,57,0.00,,---,0.00,0.00,VWS V14.00,2013-04-28 05:21:00,
2013-04-28 00:26:00,60.5,45.2,29.78,SSE,161,0.0,0.0,57,0.00,,---,0.00,0.00,VWS V14.00,2013-04-28 05:26:00,
2013-04-28 00:31:00,60.2,44.9,29.78,SSW,199,3.0,3.0,57,0.00,,---,0.00,0.00,VWS V14.00,2013-04-28 05:31:00,
2013-04-28 00:36:00,60.1,44.8,29.78,SSE,162,2.0,2.0,57,0.00,,---,0.00,0.00,VWS V14.00,2013-04-28 05:36:00,
2013-04-28 00:41:00,60.1,44.8,29.78,South,169,6.0,6.0,57,0.00,,---,0.00,0.00,VWS V14.00,2013-04-28 05:41:00,
2013-04-28 00:46:00,60.1,44.8,29.78,SSE,167,2.0,2.0,57,0.00,,---,0.00,0.00,VWS V14.00,2013-04-28 05:46:00,
2013-04-28 00:51:00,60.1,44.8,29.78,SSW,199,2.0,2.0,57,0.00,,---,0.00,0.00,VWS V14.00,2013-04-28 05:51:00,
2013-04-28 00:56:00,59.9,44.7,29.78,ESE,117,1.0,3.0,57,0.00,,---,0.00,0.00,VWS V14.00,2013-04-28 05:56:00,
2013-04-28 01:01:00,59.9,44.7,29.78,South,188,2.0,2.0,57,0.00,,---,0.00,0.00,VWS V14.00,2013-04-28 06:01:00,
2013-04-28 01:06:00,59.9,44.7,29.77,SSW,193,4.0,4.0,57,0.00,,---,0.00,0.00,VWS V14.00,2013-04-28 06:06:00,
2013-04-28 01:11:00,59.9,44.7,29.77,SSE,157,0.0,0.0,57,0.00,,---,0.00,0.00,VWS V14.00,2013-04-28 06:11:00,
2013-04-28 01:16:00,59.8,44.5,29.77,South,186,5.0,6.0,57,0.00,,---,0.00,0.00,VWS V14.00,2013-04-28 06:16:00,
2013-04-28 01:20:00,59.6,44.4,29.77,South,186,8.0,8.0,57,0.00,,---,0.00,0.00,VWS V14.00,2013-04-28 06:20:00,
2013-04-28 01:25:00,59.6,44.4,29.77,South,169,4.0,4.0,57,0.00,,---,0.00,0.00,VWS V14.00,2013-04-28 06:25:00,
2013-04-28 01:30:00,59.6,44.4,29.77,SSE,161,2.0,2.0,57,0.00,,---,0.00,0.00,VWS V14.00,2013-04-28 06:30:00,
2013-04-28 01:35:00,59.5,44.3,29.77,SSE,168,5.0,5.0,57,0.00,,---,0.00,0.00,VWS V14.00,2013-04-28 06:35:00,
2013-04-28 01:40:00,59.3,44.1,29.77,SW,220,6.0,6.0,57,0.00,,---,0.00,0.00,VWS V14.00,2013-04-28 06:40:00,
2013-04-28 01:45:00,59.3,44.1,29.77,South,179,13.0,13.0,57,0.00,,---,0.00,0.00,VWS V14.00,2013-04-28 06:45:00,
2013-04-28 01:50:00,59.3,44.1,29.77,SSE,155,6.0,6.0,57,0.00,,---,0.00,0.00,VWS V14.00,2013-04-28 06:50:00,
2013-04-28 01:55:00,59.0,43.8,29.77,SSW,193,11.0,11.0,57,0.00,,---,0.00,0.00,VWS V14.00,2013-04-28 06:55:00,
2013-04-28 02:00:00,59.0,43.8,29.77,SSW,195,5.0,5.0,57,0.00,,---,0.00,0.00,VWS V14.00,2013-04-28 07:00:00,
2013-04-28 02:05:00,58.9,43.7,29.77,SSW,208,2.0,2.0,57,0.00,,---,0.00,0.00,VWS V14.00,2013-04-28 07:05:00,
2013-04-28 02:10:00,58.9,43.7,29.77,SSW,208,3.0,3.0,57,0.00,,---,0.00,0.00,VWS V14.00,2013-04-28 07:10:00,
2013-04-28 02:15:00,58.7,44.0,29.77,South,191,0.0,4.0,58,0.00,,---,0.00,0.00,VWS V14.00,2013-04-28 07:15:00,
2013-04-28 02:20:00,58.6,43.9,29.77,South,172,2.0,7.0,58,0.00,,---,0.00,0.00,VWS V14.00,2013-04-28 07:20:00,
2013-04-28 02:25:00,58.4,43.7,29.77,South,182,3.0,3.0,58,0.00,,---,0.00,0.00,VWS V14.00,2013-04-28 07:25:00,
2013-04-28 02:30:00,58.3,43.6,29.77,SSW,196,2.0,2.0,58,0.00,,---,0.00,0.00,VWS V14.00,2013-04-28 07:30:00,
2013-04-28 02:35:00,58.1,43.9,29.77,SSW,195,1.0,2.0,59,0.00,,---,0.00,0.00,VWS V14.00,2013-04-28 07:35:00,
2013-04-28 02:40:00,58.1,43.9,29.77,SSW,192,1.0,1.0,59,0.00,,---,0.00,0.00,VWS V14.00,2013-04-28 07:40:00,
2013-04-28 02:45:00,57.6,43.4,29.77,SSW,196,1.0,1.0,59,0.00,,---,0.00,0.00,VWS V14.00,2013-04-28 07:45:00,
2013-04-28 02:50:00,57.5,43.3,29.77,SSE,157,5.0,6.0,59,0.00,,---,0.00,0.00,VWS V14.00,2013-04-28 07:50:00,
2013-04-28 02:55:00,57.5,43.3,29.77,SSE,155,1.0,1.0,59,0.00,,---,0.00,0.00,VWS V14.00,2013-04-28 07:55:00,
2013-04-28 03:00:00,57.5,43.7,29.77,South,182,1.0,1.0,60,0.00,,---,0.00,0.00,VWS V14.00,2013-04-28 08:00:00,
2013-04-28 03:05:00,57.0,43.3,29.76,SSW,208,4.0,5.0,60,0.00,,---,0.00,0.00,VWS V14.00,2013-04-28 08:05:00,
2013-04-28 03:10:00,56.9,43.6,29.76,SSW,202,2.0,2.0,61,0.00,,---,0.00,0.00,VWS V14.00,2013-04-28 08:10:00,
2013-04-28 03:15:00,56.9,43.6,29.76,SSW,210,4.0,4.0,61,0.00,,---,0.00,0.00,VWS V14.00,2013-04-28 08:15:00,
2013-04-28 03:20:00,56.5,43.2,29.76,SE,136,2.0,2.0,61,0.00,,---,0.00,0.00,VWS V14.00,2013-04-28 08:20:00,
2013-04-28 03:25:00,56.3,43.0,29.76,South,186,5.0,5.0,61,0.00,,---,0.00,0.00,VWS V14.00,2013-04-28 08:25:00,
2013-04-28 03:30:00,56.2,43.0,29.76,SW,220,1.0,1.0,61,0.00,,---,0.00,0.00,VWS V14.00,2013-04-28 08:30:00,
2013-04-28 03:35:00,56.0,42.8,29.77,South,185,5.0,5.0,61,0.00,,---,0.00,0.00,VWS V14.00,2013-04-28 08:35:00,
2013-04-28 03:40:00,56.0,44.0,29.77,South,191,5.0,5.0,64,0.00,,---,0.00,0.00,VWS V14.00,2013-04-28 08:40:00,
2013-04-28 03:45:00,55.9,43.9,29.77,South,185,5.0,5.0,64,0.00,,---,0.00,0.00,VWS V14.00,2013-04-28 08:45:00,
2013-04-28 03:50:00,55.7,43.7,29.76,South,176,8.0,8.0,64,0.00,,---,0.00,0.00,VWS V14.00,2013-04-28 08:50:00,
2013-04-28 03:55:00,55.6,43.6,29.76,SSW,205,4.0,4.0,64,0.00,,---,0.00,0.00,VWS V14.00,2013-04-28 08:55:00,
2013-04-28 04:00:00,55.4,43.4,29.76,SSW,198,5.0,5.0,64,0.00,,---,0.00,0.00,VWS V14.00,2013-04-28 09:00:00,
2013-04-28 04:05:00,55.3,44.2,29.77,South,185,3.0,3.0,66,0.00,,---,0.00,0.00,VWS V14.00,2013-04-28 09:05:00,
2013-04-28 04:10:00,55.1,44.0,29.77,South,175,3.0,3.0,66,0.00,,---,0.00,0.00,VWS V14.00,2013-04-28 09:10:00,
2013-04-28 04:15:00,55.1,44.3,29.77,South,181,0.0,2.0,67,0.00,,---,0.00,0.00,VWS V14.00,2013-04-28 09:15:00,
2013-04-28 04:20:00,54.8,44.1,29.75,SSE,160,2.0,2.0,67,0.00,,---,0.00,0.00,VWS V14.00,2013-04-28 09:20:00,
2013-04-28 04:25:00,54.7,44.0,29.75,South,191,7.0,7.0,67,0.00,,---,0.00,0.00,VWS V14.00,2013-04-28 09:25:00,
2013-04-28 04:30:00,54.5,43.8,29.75,SSE,147,2.0,2.0,67,0.00,,---,0.00,0.00,VWS V14.00,2013-04-28 09:30:00,
2013-04-28 04:35:00,54.5,43.8,29.74,South,189,3.0,3.0,67,0.00,,---,0.00,0.00,VWS V14.00,2013-04-28 09:35:00,
2013-04-28 04:40:00,54.4,43.7,29.74,SSW,195,6.0,6.0,67,0.00,,---,0.00,0.00,VWS V14.00,2013-04-28 09:40:00,
2013-04-28 04:45:00,54.4,43.7,29.74,SSW,192,3.0,3.0,67,0.00,,---,0.00,0.00,VWS V14.00,2013-04-28 09:45:00,
2013-04-28 04:50:00,54.2,43.5,29.74,SW,223,7.0,7.0,67,0.00,,---,0.00,0.00,VWS V14.00,2013-04-28 09:50:00,
2013-04-28 04:55:00,54.2,44.3,29.74,South,184,1.0,3.0,69,0.00,,---,0.00,0.00,VWS V14.00,2013-04-28 09:55:00,
2013-04-28 05:00:00,54.1,44.2,29.74,SE,134,6.0,6.0,69,0.00,,---,0.00,0.00,VWS V14.00,2013-04-28 10:00:00,
2013-04-28 05:05:00,54.1,44.2,29.75,South,185,2.0,2.0,69,0.00,,---,0.00,0.00,VWS V14.00,2013-04-28 10:05:00,
2013-04-28 05:10:00,53.9,44.0,29.75,South,181,2.0,2.0,69,0.00,,---,0.00,0.00,VWS V14.00,2013-04-28 10:10:00,
2013-04-28 05:15:00,53.8,43.9,29.75,SSE,155,2.0,2.0,69,0.00,,---,0.00,0.00,VWS V14.00,2013-04-28 10:15:00,
2013-04-28 05:20:00,53.6,43.7,29.74,South,189,2.0,3.0,69,0.00,,---,0.00,0.00,VWS V14.00,2013-04-28 10:20:00,
2013-04-28 05:25:00,53.6,43.7,29.74,South,188,1.0,1.0,69,0.00,,---,0.00,0.00,VWS V14.00,2013-04-28 10:25:00,
2013-04-28 05:30:00,53.6,43.7,29.74,SSW,198,6.0,6.0,69,0.00,,---,0.00,0.00,VWS V14.00,2013-04-28 10:30:00,
2013-04-28 05:35:00,53.5,44.0,29.74,SSW,200,7.0,7.0,70,0.00,,---,0.00,0.00,VWS V14.00,2013-04-28 10:35:00,
2013-04-28 05:40:00,53.5,44.0,29.74,SW,215,7.0,8.0,70,0.00,,---,0.00,0.00,VWS V14.00,2013-04-28 10:40:00,
2013-04-28 05:45:00,53.5,44.0,29.74,SSW,205,12.0,12.0,70,0.00,,---,0.00,0.00,VWS V14.00,2013-04-28 10:45:00,
2013-04-28 05:50:00,53.5,44.0,29.74,SSE,150,6.0,11.0,70,0.00,,---,0.00,0.00,VWS V14.00,2013-04-28 10:50:00,
2013-04-28 05:55:00,53.3,43.8,29.74,South,184,3.0,3.0,70,0.00,,---,0.00,0.00,VWS V14.00,2013-04-28 10:55:00,
2013-04-28 06:00:00,53.3,43.8,29.74,South,182,3.0,3.0,70,0.00,,---,0.00,0.00,VWS V14.00,2013-04-28 11:00:00,
2013-04-28 06:05:00,53.3,43.8,29.74,South,169,3.0,3.0,70,0.00,,---,0.00,0.00,VWS V14.00,2013-04-28 11:05:00,
2013-04-28 06:10:00,53.3,43.8,29.74,South,175,2.0,2.0,70,0.00,,---,0.00,0.00,VWS V14.00,2013-04-28 11:10:00,
2013-04-28 06:15:00,52.9,43.4,29.74,SSE,165,6.0,8.0,70,0.00,,---,0.00,0.00,VWS V14.00,2013-04-28 11:15:00,
2013-04-28 06:20:00,52.9,43.4,29.75,SSW,205,2.0,2.0,70,0.00,,---,0.00,5.00,VWS V14.00,2013-04-28 11:20:00,
2013-04-28 06:25:00,52.9,43.4,29.75,South,181,3.0,3.0,70,0.00,,---,0.00,5.00,VWS V14.00,2013-04-28 11:25:00,
2013-04-28 06:30:00,52.8,43.3,29.75,South,169,1.0,1.0,70,0.00,,---,0.00,5.00,VWS V14.00,2013-04-28 11:30:00,
2013-04-28 06:35:00,52.8,44.0,29.75,South,169,1.0,1.0,72,0.00,,---,0.00,5.00,VWS V14.00,2013-04-28 11:35:00,
2013-04-28 06:40:00,52.6,43.8,29.75,SSW,196,5.0,5.0,72,0.00,,---,0.00,5.00,VWS V14.00,2013-04-28 11:40:00,
2013-04-28 06:45:00,52.6,43.8,29.75,SE,145,5.0,5.0,72,0.00,,---,0.00,5.00,VWS V14.00,2013-04-28 11:45:00,
2013-04-28 06:50:00,52.6,44.2,29.74,SSE,164,2.0,2.0,73,0.00,,---,0.00,5.00,VWS V14.00,2013-04-28 11:50:00,
2013-04-28 06:55:00,52.6,44.2,29.74,SSE,168,4.0,4.0,73,0.00,,---,0.00,5.00,VWS V14.00,2013-04-28 11:55:00,
2013-04-28 07:00:00,52.6,44.2,29.74,South,186,2.0,2.0,73,0.00,,---,0.00,5.00,VWS V14.00,2013-04-28 12:00:00,
2013-04-28 07:05:00,52.9,44.1,29.74,South,172,1.0,2.0,72,0.00,,---,0.00,5.00,VWS V14.00,2013-04-28 12:05:00,
2013-04-28 07:10:00,52.9,44.1,29.74,SSE,147,3.0,3.0,72,0.00,,---,0.00,5.00,VWS V14.00,2013-04-28 12:10:00,
2013-04-28 07:15:00,52.9,44.1,29.74,SE,145,2.0,2.0,72,0.00,,---,0.00,5.00,VWS V14.00,2013-04-28 12:15:00,
2013-04-28 07:20:00,52.9,44.1,29.71,SSE,165,5.0,5.0,72,0.00,,---,0.00,5.00,VWS V14.00,2013-04-28 12:20:00,
2013-04-28 07:25:00,53.3,44.5,29.71,SSW,196,1.0,1.0,72,0.00,,---,0.00,5.00,VWS V14.00,2013-04-28 12:25:00,
2013-04-28 07:30:00,53.6,44.4,29.71,South,175,1.0,1.0,71,0.00,,---,0.00,5.00,VWS V14.00,2013-04-28 12:30:00,
2013-04-28 07:35:00,53.6,44.1,29.71,SSE,151,3.0,3.0,70,0.00,,---,0.00,5.00,VWS V14.00,2013-04-28 12:35:00,
2013-04-28 07:40:00,54.1,44.5,29.71,South,179,4.0,4.0,70,0.00,,---,0.00,5.00,VWS V14.00,2013-04-28 12:40:00,
2013-04-28 07:45:00,54.4,44.8,29.71,SE,141,4.0,4.0,70,0.00,,---,0.00,5.00,VWS V14.00,2013-04-28 12:45:00,
2013-04-28 07:50:00,54.4,44.8,29.71,SE,141,5.0,5.0,70,0.00,,---,0.00,5.00,VWS V14.00,2013-04-28 12:50:00,
2013-04-28 07:55:00,54.4,44.8,29.71,SSE,152,5.0,5.0,70,0.00,,---,0.00,5.00,VWS V14.00,2013-04-28 12:55:00,
2013-04-28 08:00:00,55.3,44.9,29.71,South,184,4.0,5.0,68,0.00,,---,0.00,245.00,VWS V14.00,2013-04-28 13:00:00,
2013-04-28 08:05:00,55.7,45.3,29.71,SSE,154,5.0,6.0,68,0.00,,---,0.00,264.00,VWS V14.00,2013-04-28 13:05:00,
2013-04-28 08:10:00,55.9,45.5,29.71,SSW,209,7.0,7.0,68,0.00,,---,0.00,299.00,VWS V14.00,2013-04-28 13:10:00,
2013-04-28 08:15:00,56.2,45.0,29.71,South,185,7.0,7.0,66,0.00,,---,0.00,313.00,VWS V14.00,2013-04-28 13:15:00,
2013-04-28 08:20:00,56.2,45.0,29.71,South,182,5.0,5.0,66,0.00,,---,0.00,313.00,VWS V14.00,2013-04-28 13:20:00,
2013-04-28 08:25:00,57.2,46.0,29.71,SSE,160,2.0,2.0,66,0.00,,---,0.00,313.00,VWS V14.00,2013-04-28 13:25:00,
2013-04-28 08:30:00,57.8,45.7,29.71,SSE,151,7.0,11.0,64,0.00,,---,0.00,313.00,VWS V14.00,2013-04-28 13:30:00,
2013-04-28 08:35:00,58.1,45.6,29.71,SW,215,2.0,3.0,63,0.00,,---,0.00,401.00,VWS V14.00,2013-04-28 13:35:00,
2013-04-28 08:40:00,58.1,44.7,29.71,SSE,167,3.0,3.0,61,0.00,,---,0.00,401.00,VWS V14.00,2013-04-28 13:40:00,
2013-04-28 08:45:00,59.0,45.6,29.71,South,186,2.0,2.0,61,0.00,,---,0.00,401.00,VWS V14.00,2013-04-28 13:45:00,
2013-04-28 08:50:00,59.6,45.7,29.71,SE,136,5.0,5.0,60,0.00,,---,0.00,401.00,VWS V14.00,2013-04-28 13:50:00,
2013-04-28 08:55:00,59.8,45.9,29.71,South,176,2.0,2.0,60,0.00,,---,0.00,401.00,VWS V14.00,2013-04-28 13:55:00,
2013-04-28 09:00:00,59.9,45.5,29.71,SE,137,6.0,6.0,59,0.00,,---,0.00,401.00,VWS V14.00,2013-04-28 14:00:00,
2013-04-28 09:05:00,59.9,45.5,29.70,SSE,154,5.0,6.0,59,0.00,,---,0.00,401.00,VWS V14.00,2013-04-28 14:05:00,
2013-04-28 09:10:00,59.9,45.5,29.70,SSW,202,2.0,3.0,59,0.00,,---,0.00,401.00,VWS V14.00,2013-04-28 14:10:00,
2013-04-28 09:15:00,59.9,45.5,29.70,SSE,158,2.0,2.0,59,0.00,,---,0.00,401.00,VWS V14.00,2013-04-28 14:15:00,
2013-04-28 09:20:00,60.1,45.7,29.69,SE,138,2.0,4.0,59,0.00,,---,0.00,401.00,VWS V14.00,2013-04-28 14:20:00,
2013-04-28 09:25:00,60.7,46.3,29.69,SSE,154,5.0,5.0,59,0.00,,---,0.00,398.00,VWS V14.00,2013-04-28 14:25:00,
2013-04-28 09:30:00,60.7,46.3,29.69,SE,138,2.0,2.0,59,0.00,,---,0.00,398.00,VWS V14.00,2013-04-28 14:30:00,
2013-04-28 09:35:00,61.5,47.1,29.68,ESE,110,5.0,5.0,59,0.00,,---,0.00,398.00,VWS V14.00,2013-04-28 14:35:00,
2013-04-28 09:40:00,62.4,46.0,29.68,SW,217,2.0,2.0,55,0.00,,---,0.00,398.00,VWS V14.00,2013-04-28 14:40:00,
2013-04-28 09:45:00,62.4,45.5,29.68,SSE,161,8.0,8.0,54,0.00,,---,0.00,535.00,VWS V14.00,2013-04-28 14:45:00,
2013-04-28 09:50:00,63.4,46.5,29.67,South,189,11.0,11.0,54,0.00,,---,0.00,494.00,VWS V14.00,2013-04-28 14:50:00,
2013-04-28 09:55:00,63.5,46.6,29.67,SSE,150,7.0,7.0,54,0.00,,---,0.00,494.00,VWS V14.00,2013-04-28 14:55:00,
2013-04-28 10:00:00,63.7,46.8,29.67,SSW,202,12.0,12.0,54,0.00,,---,0.00,625.00,VWS V14.00,2013-04-28 15:00:00,
2013-04-28 10:05:00,64.2,47.2,29.67,SSE,150,6.0,6.0,54,0.00,,---,0.00,625.00,VWS V14.00,2013-04-28 15:05:00,
2013-04-28 10:10:00,64.3,47.3,29.67,SSW,205,5.0,5.0,54,0.00,,---,0.00,625.00,VWS V14.00,2013-04-28 15:10:00,
2013-04-28 10:15:00,65.3,48.2,29.67,South,175,6.0,6.0,54,0.00,,---,0.00,625.00,VWS V14.00,2013-04-28 15:15:00,
2013-04-28 10:20:00,66.0,45.8,29.66,SE,141,2.0,2.0,48,0.00,,---,0.00,625.00,VWS V14.00,2013-04-28 15:20:00,
2013-04-28 10:25:00,66.0,45.8,29.66,ESE,109,6.0,6.0,48,0.00,,---,0.00,660.00,VWS V14.00,2013-04-28 15:25:00,
2013-04-28 10:30:00,66.8,46.5,29.66,SSE,161,7.0,8.0,48,0.00,,---,0.00,660.00,VWS V14.00,2013-04-28 15:30:00,
2013-04-28 10:35:00,66.9,44.9,29.65,SSW,193,5.0,7.0,45,0.00,,---,0.00,660.00,VWS V14.00,2013-04-28 15:35:00,
2013-04-28 10:40:00,67.3,45.2,29.65,SSE,152,10.0,10.0,45,0.00,,---,0.00,727.00,VWS V14.00,2013-04-28 15:40:00,
2013-04-28 10:45:00,67.6,45.5,29.65,SE,134,2.0,2.0,45,0.00,,---,0.00,688.00,VWS V14.00,2013-04-28 15:45:00,
2013-04-28 10:50:00,68.8,46.6,29.65,South,186,7.0,7.0,45,0.00,,---,0.00,688.00,VWS V14.00,2013-04-28 15:50:00,
2013-04-28 10:55:00,68.8,46.6,29.65,SSW,192,3.0,3.0,45,0.00,,---,0.00,688.00,VWS V14.00,2013-04-28 15:55:00,
2013-04-28 11:00:00,68.8,46.6,29.65,SSE,154,2.0,2.0,45,0.00,,---,0.00,688.00,VWS V14.00,2013-04-28 16:00:00,
2013-04-28 11:05:00,68.4,46.2,29.65,SSW,195,7.0,8.0,45,0.00,,---,0.00,384.00,VWS V14.00,2013-04-28 16:05:00,
2013-04-28 11:10:00,68.3,46.2,29.65,SSE,161,6.0,6.0,45,0.00,,---,0.00,384.00,VWS V14.00,2013-04-28 16:10:00,
2013-04-28 11:15:00,68.3,45.6,29.65,South,191,3.0,6.0,44,0.00,,---,0.00,384.00,VWS V14.00,2013-04-28 16:15:00,
2013-04-28 11:20:00,68.4,45.7,29.64,SE,138,3.0,3.0,44,0.00,,---,0.00,384.00,VWS V14.00,2013-04-28 16:20:00,
2013-04-28 11:25:00,68.9,46.7,29.64,ESE,106,5.0,5.0,45,0.00,,---,0.00,384.00,VWS V14.00,2013-04-28 16:25:00,
2013-04-28 11:30:00,69.8,45.7,29.64,SSW,203,12.0,12.0,42,0.00,,---,0.00,384.00,VWS V14.00,2013-04-28 16:30:00,
2013-04-28 11:35:00,69.8,45.7,29.64,SSE,151,4.0,4.0,42,0.00,,---,0.00,384.00,VWS V14.00,2013-04-28 16:35:00,
2013-04-28 11:40:00,70.3,45.5,29.64,SSE,161,13.0,13.0,41,0.00,,---,0.00,384.00,VWS V14.00,2013-04-28 16:40:00,
2013-04-28 11:44:00,70.3,45.5,29.64,East,83,3.0,3.0,41,0.00,,---,0.00,384.00,VWS V14.00,2013-04-28 16:44:00,
2013-04-28 11:49:00,70.3,45.5,29.64,SSW,200,3.0,3.0,41,0.00,,---,0.00,384.00,VWS V14.00,2013-04-28 16:49:00,
2013-04-28 11:54:00,70.3,45.5,29.64,SSE,150,5.0,5.0,41,0.00,,---,0.00,384.00,VWS V14.00,2013-04-28 16:54:00,
2013-04-28 11:59:00,71.1,46.2,29.64,SE,145,10.0,10.0,41,0.00,,---,0.00,384.00,VWS V14.00,2013-04-28 16:59:00,
2013-04-28 12:04:00,71.1,46.2,29.63,SSW,213,3.0,3.0,41,0.00,,---,0.00,384.00,VWS V14.00,2013-04-28 17:04:00,
2013-04-28 12:09:00,71.1,46.2,29.63,SSE,165,6.0,6.0,41,0.00,,---,0.00,384.00,VWS V14.00,2013-04-28 17:09:00,
2013-04-28 12:14:00,70.6,45.8,29.63,SE,140,11.0,11.0,41,0.00,,---,0.00,384.00,VWS V14.00,2013-04-28 17:14:00,
2013-04-28 12:19:00,70.6,45.8,29.64,South,186,6.0,6.0,41,0.00,,---,0.00,384.00,VWS V14.00,2013-04-28 17:19:00,
2013-04-28 12:24:00,71.6,46.7,29.64,SW,234,12.0,12.0,41,0.00,,---,0.00,384.00,VWS V14.00,2013-04-28 17:24:00,
2013-04-28 12:29:00,71.8,44.2,29.64,South,179,11.0,11.0,37,0.00,,---,0.00,384.00,VWS V14.00,2013-04-28 17:29:00,
2013-04-28 12:34:00,71.8,44.2,29.63,SSE,157,11.0,11.0,37,0.00,,---,0.00,384.00,VWS V14.00,2013-04-28 17:34:00,
2013-04-28 12:39:00,72.1,44.4,29.63,SSW,212,8.0,8.0,37,0.00,,---,0.00,384.00,VWS V14.00,2013-04-28 17:39:00,
2013-04-28 12:44:00,72.3,44.6,29.63,South,191,10.0,10.0,37,0.00,,---,0.00,384.00,VWS V14.00,2013-04-28 17:44:00,
2013-04-28 12:49:00,72.3,43.9,29.62,South,188,6.0,6.0,36,0.00,,---,0.00,384.00,VWS V14.00,2013-04-28 17:49:00,
2013-04-28 12:54:00,72.3,43.9,29.62,ESE,119,2.0,2.0,36,0.00,,---,0.00,384.00,VWS V14.00,2013-04-28 17:54:00,
2013-04-28 12:59:00,72.5,44.1,29.62,SSE,167,5.0,5.0,36,0.00,,---,0.00,463.00,VWS V14.00,2013-04-28 17:59:00,
2013-04-28 13:04:00,72.5,44.1,29.61,South,189,10.0,10.0,36,0.00,,---,0.00,463.00,VWS V14.00,2013-04-28 18:04:00,
2013-04-28 13:09:00,72.8,44.3,29.61,WSW,248,2.0,8.0,36,0.00,,---,0.00,463.00,VWS V14.00,2013-04-28 18:09:00,
2013-04-28 13:14:00,72.8,43.6,29.61,South,184,5.0,5.0,35,0.00,,---,0.00,463.00,VWS V14.00,2013-04-28 18:14:00,
2013-04-28 13:19:00,72.8,43.6,29.61,SSW,213,8.0,8.0,35,0.00,,---,0.00,463.00,VWS V14.00,2013-04-28 18:19:00,
2013-04-28 13:24:00,72.8,43.6,29.61,SSE,148,5.0,5.0,35,0.00,,---,0.00,463.00,VWS V14.00,2013-04-28 18:24:00,
2013-04-28 13:29:00,73.2,43.9,29.61,West,263,8.0,8.0,35,0.00,,---,0.00,463.00,VWS V14.00,2013-04-28 18:29:00,
2013-04-28 13:34:00,73.2,43.9,29.61,SSW,212,6.0,6.0,35,0.00,,---,0.00,463.00,VWS V14.00,2013-04-28 18:34:00,
2013-04-28 13:39:00,73.2,43.9,29.61,SSE,151,6.0,6.0,35,0.00,,---,0.00,463.00,VWS V14.00,2013-04-28 18:39:00,
2013-04-28 13:44:00,74.9,45.4,29.61,WNW,285,10.0,10.0,35,0.00,,---,0.00,463.00,VWS V14.00,2013-04-28 18:44:00,
2013-04-28 13:49:00,74.9,44.7,29.60,SSE,150,6.0,6.0,34,0.00,,---,0.00,463.00,VWS V14.00,2013-04-28 18:49:00,
2013-04-28 13:54:00,75.3,45.0,29.60,South,181,11.0,11.0,34,0.00,,---,0.00,463.00,VWS V14.00,2013-04-28 18:54:00,
2013-04-28 13:59:00,75.8,45.5,29.60,ESE,120,7.0,12.0,34,0.00,,---,0.00,463.00,VWS V14.00,2013-04-28 18:59:00,
2013-04-28 14:04:00,75.8,45.5,29.60,South,171,3.0,3.0,34,0.00,,---,0.00,463.00,VWS V14.00,2013-04-28 19:04:00,
2013-04-28 14:09:00,75.8,45.5,29.60,SSW,208,10.0,10.0,34,0.00,,---,0.00,463.00,VWS V14.00,2013-04-28 19:09:00,
2013-04-28 14:14:00,75.8,45.5,29.60,SSW,208,10.0,10.0,34,0.00,,---,0.00,463.00,VWS V14.00,2013-04-28 19:14:00,
2013-04-28 14:19:00,75.8,45.5,29.60,SSW,208,10.0,10.0,34,0.00,,---,0.00,463.00,VWS V14.00,2013-04-28 19:19:00,
2013-04-28 14:24:00,75.8,45.5,29.60,SSW,193,9.0,9.0,34,0.00,,---,0.00,463.00,VWS V14.00,2013-04-28 19:24:00,
2013-04-28 14:29:00,75.8,45.5,29.60,WSW,256,5.0,5.0,34,0.00,,---,0.00,463.00,VWS V14.00,2013-04-28 19:29:00,
2013-04-28 14:34:00,75.8,45.5,29.59,SW,219,8.0,8.0,34,0.00,,---,0.00,463.00,VWS V14.00,2013-04-28 19:34:00,
2013-04-28 14:39:00,75.8,45.5,29.59,SSE,151,2.0,2.0,34,0.00,,---,0.00,463.00,VWS V14.00,2013-04-28 19:39:00,
2013-04-28 14:44:00,76.1,45.7,29.59,SW,222,3.0,3.0,34,0.00,,---,0.00,463.00,VWS V14.00,2013-04-28 19:44:00,
2013-04-28 14:49:00,76.1,45.7,29.59,SSW,209,12.0,12.0,34,0.00,,---,0.00,463.00,VWS V14.00,2013-04-28 19:49:00,
2013-04-28 14:54:00,76.5,46.1,29.59,SSW,199,0.0,0.0,34,0.00,,---,0.00,463.00,VWS V14.00,2013-04-28 19:54:00,
2013-04-28 14:59:00,76.7,46.2,29.59,SW,227,7.0,7.0,34,0.00,,---,0.00,463.00,VWS V14.00,2013-04-28 19:59:00,
2013-04-28 15:04:00,76.7,44.7,29.59,South,178,4.0,4.0,32,0.00,,---,0.00,204.00,VWS V14.00,2013-04-28 20:04:00,
2013-04-28 15:09:00,76.7,44.7,29.59,SSW,199,5.0,8.0,32,0.00,,---,0.00,204.00,VWS V14.00,2013-04-28 20:09:00,
2013-04-28 15:14:00,77.0,44.9,29.59,SSW,199,12.0,12.0,32,0.00,,---,0.00,204.00,VWS V14.00,2013-04-28 20:14:00,
2013-04-28 15:19:00,77.0,44.9,29.58,South,169,7.0,7.0,32,0.00,,---,0.00,204.00,VWS V14.00,2013-04-28 20:19:00,
2013-04-28 15:24:00,77.2,45.1,29.58,SSE,161,5.0,5.0,32,0.00,,---,0.00,204.00,VWS V14.00,2013-04-28 20:24:00,
2013-04-28 15:29:00,77.6,46.2,29.58,South,178,7.0,7.0,33,0.00,,---,0.00,204.00,VWS V14.00,2013-04-28 20:29:00,
2013-04-28 15:34:00,77.6,46.2,29.57,South,186,6.0,6.0,33,0.00,,---,0.00,204.00,VWS V14.00,2013-04-28 20:34:00,
2013-04-28 15:39:00,77.6,46.2,29.57,SW,215,1.0,1.0,33,0.00,,---,0.00,204.00,VWS V14.00,2013-04-28 20:39:00,
2013-04-28 15:44:00,77.6,46.2,29.57,SSE,157,3.0,3.0,33,0.00,,---,0.00,204.00,VWS V14.00,2013-04-28 20:44:00,
2013-04-28 15:49:00,77.6,46.2,29.57,SSW,205,7.0,7.0,33,0.00,,---,0.00,204.00,VWS V14.00,2013-04-28 20:49:00,
2013-04-28 15:54:00,77.6,46.2,29.57,SE,145,3.0,3.0,33,0.00,,---,0.00,204.00,VWS V14.00,2013-04-28 20:54:00,
2013-04-28 15:59:00,77.6,44.6,29.57,ESE,114,6.0,6.0,31,0.00,,---,0.00,204.00,VWS V14.00,2013-04-28 20:59:00,
2013-04-28 16:04:00,77.6,44.6,29.56,SSE,154,8.0,8.0,31,0.00,,---,0.00,204.00,VWS V14.00,2013-04-28 21:04:00,
2013-04-28 16:09:00,77.9,44.9,29.56,South,181,5.0,5.0,31,0.00,,---,0.00,204.00,VWS V14.00,2013-04-28 21:09:00,
2013-04-28 16:14:00,78.5,45.4,29.56,SW,220,13.0,13.0,31,0.00,,---,0.00,204.00,VWS V14.00,2013-04-28 21:14:00,
2013-04-28 16:19:00,78.5,45.4,29.55,SSW,210,9.0,9.0,31,0.00,,---,0.00,204.00,VWS V14.00,2013-04-28 21:19:00,
2013-04-28 16:24:00,78.5,44.5,29.55,SE,136,5.0,5.0,30,0.00,,---,0.00,204.00,VWS V14.00,2013-04-28 21:24:00,
2013-04-28 16:29:00,78.3,44.3,29.55,SSE,154,2.0,2.0,30,0.00,,---,0.00,204.00,VWS V14.00,2013-04-28 21:29:00,
2013-04-28 16:34:00,78.4,44.4,29.54,East,99,5.0,5.0,30,0.00,,---,0.00,204.00,VWS V14.00,2013-04-28 21:34:00,
2013-04-28 16:39:00,78.3,44.3,29.54,SSE,167,4.0,4.0,30,0.00,,---,0.00,204.00,VWS V14.00,2013-04-28 21:39:00,
2013-04-28 16:44:00,78.3,43.5,29.54,SSE,162,3.0,3.0,29,0.00,,---,0.00,204.00,VWS V14.00,2013-04-28 21:44:00,
2013-04-28 16:49:00,78.3,43.5,29.54,SSE,164,4.0,4.0,29,0.00,,---,0.00,204.00,VWS V14.00,2013-04-28 21:49:00,
2013-04-28 16:54:00,78.3,43.5,29.54,SW,217,6.0,6.0,29,0.00,,---,0.00,204.00,VWS V14.00,2013-04-28 21:54:00,
2013-04-28 16:59:00,78.3,43.5,29.54,SSW,200,3.0,12.0,29,0.00,,---,0.00,204.00,VWS V14.00,2013-04-28 21:59:00,
2013-04-28 17:04:00,79.6,44.6,29.54,East,99,3.0,3.0,29,0.00,,---,0.00,204.00,VWS V14.00,2013-04-28 22:04:00,
2013-04-28 17:09:00,79.6,44.6,29.54,SE,143,3.0,3.0,29,0.00,,---,0.00,204.00,VWS V14.00,2013-04-28 22:09:00,
2013-04-28 17:14:00,79.6,44.6,29.54,South,171,4.0,4.0,29,0.00,,---,0.00,204.00,VWS V14.00,2013-04-28 22:14:00,
2013-04-28 17:19:00,79.6,44.6,29.53,South,184,8.0,8.0,29,0.00,,---,0.00,204.00,VWS V14.00,2013-04-28 22:19:00,
2013-04-28 17:24:00,79.9,44.8,29.53,SW,223,9.0,9.0,29,0.00,,---,0.00,204.00,VWS V14.00,2013-04-28 22:24:00,
2013-04-28 17:29:00,79.9,44.8,29.53,SSE,164,1.0,1.0,29,0.00,,---,0.00,204.00,VWS V14.00,2013-04-28 22:29:00,
2013-04-28 17:34:00,78.8,43.0,29.52,SSW,193,2.0,2.0,28,0.00,,---,0.00,204.00,VWS V14.00,2013-04-28 22:34:00,
2013-04-28 17:39:00,78.6,43.7,29.52,South,182,2.0,2.0,29,0.00,,---,0.00,204.00,VWS V14.00,2013-04-28 22:39:00,
2013-04-28 17:44:00,78.3,43.5,29.52,SW,222,4.0,6.0,29,0.00,,---,0.00,90.00,VWS V14.00,2013-04-28 22:44:00,
2013-04-28 17:49:00,78.1,43.3,29.52,South,188,6.0,6.0,29,0.00,,---,0.00,90.00,VWS V14.00,2013-04-28 22:49:00,
2013-04-28 17:54:00,78.1,43.3,29.52,WSW,237,2.0,2.0,29,0.00,,---,0.00,90.00,VWS V14.00,2013-04-28 22:54:00,
2013-04-28 17:59:00,77.9,43.1,29.52,SW,217,5.0,5.0,29,0.00,,---,0.00,90.00,VWS V14.00,2013-04-28 22:59:00,
2013-04-28 18:04:00,77.9,43.1,29.54,WNW,284,3.0,3.0,29,0.00,,---,0.00,90.00,VWS V14.00,2013-04-28 23:04:00,
2013-04-28 18:09:00,77.9,43.1,29.54,North,0,6.0,6.0,29,0.00,,---,0.00,90.00,VWS V14.00,2013-04-28 23:09:00,
2013-04-28 18:14:00,77.0,43.2,29.54,North,0,2.0,2.0,30,0.00,,---,0.00,90.00,VWS V14.00,2013-04-28 23:14:00,
2013-04-28 18:19:00,76.8,43.0,29.54,North,359,1.0,1.0,30,0.00,,---,0.00,90.00,VWS V14.00,2013-04-28 23:19:00,
2013-04-28 18:24:00,76.8,43.0,29.54,NW,316,0.0,0.0,30,0.00,,---,0.00,90.00,VWS V14.00,2013-04-28 23:24:00,
2013-04-28 18:29:00,76.7,43.8,29.54,NW,320,2.0,2.0,31,0.00,,---,0.00,144.00,VWS V14.00,2013-04-28 23:29:00,
2013-04-28 18:34:00,76.5,43.7,29.54,WNW,296,1.0,1.0,31,0.00,,---,0.00,118.00,VWS V14.00,2013-04-28 23:34:00,
2013-04-28 18:39:00,76.5,43.7,29.54,WNW,296,2.0,2.0,31,0.00,,---,0.00,118.00,VWS V14.00,2013-04-28 23:39:00,
2013-04-28 18:44:00,76.5,43.7,29.54,WNW,296,1.0,2.0,31,0.00,,---,0.00,118.00,VWS V14.00,2013-04-28 23:44:00,
2013-04-28 18:49:00,76.5,44.5,29.54,WNW,296,1.0,2.0,32,0.00,,---,0.00,118.00,VWS V14.00,2013-04-28 23:49:00,
2013-04-28 18:54:00,76.5,44.5,29.54,WNW,296,1.0,1.0,32,0.00,,---,0.00,118.00,VWS V14.00,2013-04-28 23:54:00,
2013-04-28 18:59:00,76.3,44.3,29.54,WSW,244,0.0,0.0,32,0.00,,---,0.00,81.00,VWS V14.00,2013-04-28 23:59:00,
2013-04-28 19:04:00,76.3,44.3,29.54,NNE,28,3.0,3.0,32,0.00,,---,0.00,81.00,VWS V14.00,2013-04-29 00:04:00,
2013-04-28 19:09:00,76.3,46.7,29.54,North,6,1.0,1.0,35,0.00,,---,0.00,81.00,VWS V14.00,2013-04-29 00:09:00,
2013-04-28 19:14:00,75.6,46.0,29.54,North,10,0.0,2.0,35,0.00,,---,0.00,81.00,VWS V14.00,2013-04-29 00:14:00,
2013-04-28 19:19:00,75.6,46.0,29.56,WNW,294,3.0,3.0,35,0.00,,---,0.00,81.00,VWS V14.00,2013-04-29 00:19:00,
2013-04-28 19:24:00,75.3,45.8,29.56,NW,313,4.0,8.0,35,0.00,,---,0.00,81.00,VWS V14.00,2013-04-29 00:24:00,
2013-04-28 19:29:00,75.3,45.8,29.56,North,0,8.0,8.0,35,0.00,,---,0.00,81.00,VWS V14.00,2013-04-29 00:29:00,
2013-04-28 19:34:00,73.5,44.2,29.57,WNW,298,5.0,6.0,35,0.00,,---,0.00,81.00,VWS V14.00,2013-04-29 00:34:00,
2013-04-28 19:39:00,73.2,43.9,29.57,North,0,13.0,13.0,35,0.00,,---,0.00,81.00,VWS V14.00,2013-04-29 00:39:00,
2013-04-28 19:44:00,73.0,43.8,29.57,NW,305,3.0,3.0,35,0.00,,---,0.00,81.00,VWS V14.00,2013-04-29 00:44:00,
2013-04-28 19:49:00,72.7,43.5,29.57,NNW,339,2.0,9.0,35,0.00,,---,0.00,26.00,VWS V14.00,2013-04-29 00:49:00,
2013-04-28 19:54:00,72.1,43.0,29.57,North,356,5.0,5.0,35,0.00,,---,0.00,26.00,VWS V14.00,2013-04-29 00:54:00,
2013-04-28 19:59:00,71.5,42.4,29.57,North,1,5.0,5.0,35,0.00,,---,0.00,26.00,VWS V14.00,2013-04-29 00:59:00,
2013-04-28 20:04:00,71.3,42.3,29.58,NW,308,5.0,5.0,35,0.00,,---,0.00,26.00,VWS V14.00,2013-04-29 01:04:00,
2013-04-28 20:09:00,70.8,44.6,29.58,NW,306,5.0,5.0,39,0.00,,---,0.00,0.00,VWS V14.00,2013-04-29 01:09:00,
2013-04-28 20:14:00,70.8,44.0,29.58,NNW,328,5.0,8.0,38,0.00,,---,0.00,0.00,VWS V14.00,2013-04-29 01:14:00,
2013-04-28 20:19:00,70.3,43.5,29.60,WNW,296,9.0,9.0,38,0.00,,---,0.00,0.00,VWS V14.00,2013-04-29 01:19:00,
2013-04-28 20:24:00,69.9,43.2,29.60,NNW,343,2.0,2.0,38,0.00,,---,0.00,0.00,VWS V14.00,2013-04-29 01:24:00,
2013-04-28 20:29:00,69.6,42.9,29.60,NNW,339,10.0,10.0,38,0.00,,---,0.00,0.00,VWS V14.00,2013-04-29 01:29:00,
2013-04-28 20:34:00,69.4,42.7,29.59,North,354,7.0,7.0,38,0.00,,---,0.00,0.00,VWS V14.00,2013-04-29 01:34:00,
2013-04-28 20:39:00,69.4,42.7,29.59,NW,326,2.0,2.0,38,0.00,,---,0.00,0.00,VWS V14.00,2013-04-29 01:39:00,
2013-04-28 20:44:00,68.9,42.3,29.59,NNW,330,6.0,7.0,38,0.00,,---,0.00,0.00,VWS V14.00,2013-04-29 01:44:00,
2013-04-28 20:49:00,68.8,42.2,29.61,North,0,3.0,5.0,38,0.00,,---,0.00,0.00,VWS V14.00,2013-04-29 01:49:00,
2013-04-28 20:54:00,68.4,41.8,29.61,WNW,301,2.0,5.0,38,0.00,,---,0.00,0.00,VWS V14.00,2013-04-29 01:54:00,
2013-04-28 20:59:00,68.4,41.8,29.61,NW,320,6.0,6.0,38,0.00,,---,0.00,0.00,VWS V14.00,2013-04-29 01:59:00,
2013-04-28 21:04:00,68.3,41.7,29.61,NNW,347,3.0,3.0,38,0.00,,---,0.00,0.00,VWS V14.00,2013-04-29 02:04:00,
2013-04-28 21:09:00,68.1,41.6,29.61,North,357,6.0,6.0,38,0.00,,---,0.00,0.00,VWS V14.00,2013-04-29 02:09:00,
2013-04-28 21:14:00,67.9,41.4,29.61,North,352,4.0,4.0,38,0.00,,---,0.00,0.00,VWS V14.00,2013-04-29 02:14:00,
2013-04-28 21:19:00,67.9,43.4,29.61,NNW,336,5.0,5.0,41,0.00,,---,0.00,0.00,VWS V14.00,2013-04-29 02:19:00,
2013-04-28 21:24:00,67.9,43.4,29.61,NW,313,5.0,5.0,41,0.00,,---,0.00,0.00,VWS V14.00,2013-04-29 02:24:00,
2013-04-28 21:29:00,67.9,43.4,29.61,WNW,295,8.0,8.0,41,0.00,,---,0.00,0.00,VWS V14.00,2013-04-29 02:29:00,
2013-04-28 21:34:00,67.6,43.1,29.66,West,278,8.0,8.0,41,0.00,,---,0.00,0.00,VWS V14.00,2013-04-29 02:34:00,
2013-04-28 21:39:00,67.6,43.1,29.66,NW,319,6.0,6.0,41,0.00,,---,0.02,0.00,VWS V14.00,2013-04-29 02:39:00,
2013-04-28 21:44:00,65.0,40.8,29.66,WNW,301,2.0,2.0,41,0.08,,---,0.02,0.00,VWS V14.00,2013-04-29 02:44:00,
2013-04-28 21:49:00,64.3,40.1,29.67,NNW,347,6.0,6.0,41,0.07,,---,0.03,0.00,VWS V14.00,2013-04-29 02:49:00,
2013-04-28 21:54:00,64.3,40.1,29.67,North,0,5.0,5.0,41,0.07,,---,0.03,0.00,VWS V14.00,2013-04-29 02:54:00,
2013-04-28 21:59:00,62.7,38.7,29.67,East,85,0.0,1.0,41,0.35,,---,0.03,0.00,VWS V14.00,2013-04-29 02:59:00,
2013-04-28 22:04:00,62.3,38.3,29.65,East,85,0.0,0.0,41,0.16,,---,0.08,0.00,VWS V14.00,2013-04-29 03:04:00,
2013-04-28 22:09:00,62.3,38.3,29.65,East,85,0.0,0.0,41,0.07,,---,0.08,0.00,VWS V14.00,2013-04-29 03:09:00,
2013-04-28 22:14:00,62.3,38.3,29.65,East,99,2.0,2.0,41,0.07,,---,0.08,0.00,VWS V14.00,2013-04-29 03:14:00,
2013-04-28 22:19:00,61.0,37.2,29.63,East,99,1.0,1.0,41,0.06,,---,0.08,0.00,VWS V14.00,2013-04-29 03:19:00,
2013-04-28 22:24:00,59.8,36.1,29.63,East,99,1.0,1.0,41,0.06,,---,0.09,0.00,VWS V14.00,2013-04-29 03:24:00,
2013-04-28 22:29:00,59.2,35.5,29.63,East,99,1.0,1.0,41,0.00,,---,0.09,0.00,VWS V14.00,2013-04-29 03:29:00,
2013-04-28 22:34:00,59.2,35.5,29.63,East,99,1.0,1.0,41,0.00,,---,0.09,0.00,VWS V14.00,2013-04-29 03:34:00,
2013-04-28 22:39:00,58.7,35.1,29.63,ESE,104,1.0,1.0,41,0.00,,---,0.09,0.00,VWS V14.00,2013-04-29 03:39:00,
2013-04-28 22:44:00,58.4,52.3,29.63,ESE,123,1.0,1.0,80,0.00,,---,0.09,0.00,VWS V14.00,2013-04-29 03:44:00,
2013-04-28 22:49:00,58.3,52.2,29.62,SE,124,2.0,2.0,80,0.00,,---,0.09,0.00,VWS V14.00,2013-04-29 03:49:00,
2013-04-28 22:54:00,58.0,51.9,29.62,SE,124,2.0,2.0,80,0.00,,---,0.09,0.00,VWS V14.00,2013-04-29 03:54:00,
2013-04-28 22:59:00,58.0,52.2,29.62,SE,124,0.0,0.0,81,0.00,,---,0.09,0.00,VWS V14.00,2013-04-29 03:59:00,
2013-04-28 23:01:00,58.0,52.2,29.62,SE,124,0.0,0.0,81,0.00,,---,0.09,0.00,VWS V14.00,2013-04-29 04:01:00,
2013-04-28 23:06:00,57.8,52.0,29.62,SE,124,0.0,0.0,81,0.00,,---,0.09,0.00,VWS V14.00,2013-04-29 04:06:00,
2013-04-28 23:11:00,57.5,51.7,29.62,SE,124,0.0,0.0,81,0.00,,---,0.09,0.00,VWS V14.00,2013-04-29 04:11:00,
2013-04-28 23:16:00,57.2,51.8,29.62,SE,124,0.0,0.0,82,0.00,,---,0.09,0.00,VWS V14.00,2013-04-29 04:16:00,
2013-04-28 23:21:00,57.0,51.9,29.62,SE,124,1.0,1.0,83,0.00,,---,0.09,0.00,VWS V14.00,2013-04-29 04:21:00,
2013-04-28 23:26:00,56.9,51.8,29.62,SE,124,1.0,1.0,83,0.00,,---,0.09,0.00,VWS V14.00,2013-04-29 04:26:00,
2013-04-28 23:31:00,56.7,51.6,29.64,SE,124,1.0,1.0,83,0.00,,---,0.09,0.00,VWS V14.00,2013-04-29 04:31:00,
2013-04-28 23:36:00,56.7,51.6,29.64,SE,124,0.0,0.0,83,0.00,,---,0.09,0.00,VWS V14.00,2013-04-29 04:36:00,
2013-04-28 23:41:00,56.5,51.4,29.64,SE,124,0.0,0.0,83,0.00,,---,0.09,0.00,VWS V14.00,2013-04-29 04:41:00,
2013-04-28 23:46:00,56.3,51.2,29.64,SE,124,0.0,0.0,83,0.00,,---,0.09,0.00,VWS V14.00,2013-04-29 04:46:00,
2013-04-28 23:51:00,56.2,52.1,29.64,SE,124,1.0,1.0,86,0.00,,---,0.09,0.00,VWS V14.00,2013-04-29 04:51:00,
2013-04-28 23:56:00,56.0,51.9,29.64,SE,124,0.0,0.0,86,0.00,,---,0.09,0.00,VWS V14.00,2013-04-29 04:56:00,